TimeCST,TemperatureF,Dew PointF,Humidity,Sea Level PressureIn,VisibilityMPH,Wind Direction,Wind SpeedMPH,Gust SpeedMPH,PrecipitationIn,Events,Conditions,WindDirDegrees,DateUTC
12:15 AM,3.2,-4.0,72,30.27,10.0,NNW,6.9,-,N/A,,Clear,340,2014-02-02 06:15:00
12:35 AM,3.2,-4.0,72,30.28,10.0,North,8.1,-,N/A,,Clear,350,2014-02-02 06:35:00
12:55 AM,3.2,-4.0,72,30.27,10.0,North,6.9,-,N/A,,Clear,350,2014-02-02 06:55:00
1:15 AM,3.2,-4.0,72,30.28,10.0,North,6.9,-,N/A,,Clear,350,2014-02-02 07:15:00
1:35 AM,1.4,-5.8,72,30.28,10.0,NNW,4.6,-,N/A,,Clear,340,2014-02-02 07:35:00
1:55 AM,1.4,-4.0,78,30.28,10.0,Calm,Calm,-,N/A,,Clear,0,2014-02-02 07:55:00
2:15 AM,1.4,-4.0,78,30.29,10.0,Calm,Calm,-,N/A,,Clear,0,2014-02-02 08:15:00
2:35 AM,-0.4,-5.8,78,30.29,10.0,Calm,Calm,-,N/A,,Clear,0,2014-02-02 08:35:00
2:55 AM,-2.2,-7.6,78,30.29,10.0,Calm,Calm,-,N/A,,Clear,0,2014-02-02 08:55:00
3:15 AM,-4.0,-9.4,78,30.29,10.0,Calm,Calm,-,N/A,,Clear,0,2014-02-02 09:15:00
3:35 AM,-4.0,-9.4,78,30.29,10.0,Calm,Calm,-,N/A,,Clear,0,2014-02-02 09:35:00
3:55 AM,-4.0,-9.4,78,30.29,10.0,Calm,Calm,-,N/A,,Clear,0,2014-02-02 09:55:00
4:15 AM,-5.8,-11.2,77,30.29,10.0,Calm,Calm,-,N/A,,Clear,0,2014-02-02 10:15:00
4:35 AM,-5.8,-11.2,77,30.29,10.0,Calm,Calm,-,N/A,,Clear,0,2014-02-02 10:35:00
4:55 AM,-7.6,-13.0,77,30.30,10.0,Calm,Calm,-,N/A,,Clear,0,2014-02-02 10:55:00
5:15 AM,-7.6,-14.8,71,30.30,10.0,Calm,Calm,-,N/A,,Clear,0,2014-02-02 11:15:00
5:35 AM,-7.6,-14.8,71,30.30,10.0,Calm,Calm,-,N/A,,Scattered Clouds,0,2014-02-02 11:35:00
5:55 AM,-9.4,-16.6,71,30.30,10.0,Calm,Calm,-,N/A,,Mostly Cloudy,0,2014-02-02 11:55:00
6:15 AM,-9.4,-14.8,77,30.30,10.0,Calm,Calm,-,N/A,,Scattered Clouds,0,2014-02-02 12:15:00
6:35 AM,-11.2,-16.6,77,30.30,10.0,Calm,Calm,-,N/A,,Scattered Clouds,0,2014-02-02 12:35:00
6:55 AM,-11.2,-16.6,77,30.30,10.0,Calm,Calm,-,N/A,,Partly Cloudy,0,2014-02-02 12:55:00
7:15 AM,-11.2,-16.6,77,30.30,10.0,SE,3.5,-,N/A,,Clear,130,2014-02-02 13:15:00
7:35 AM,-9.4,-16.6,71,30.31,10.0,SE,3.5,-,N/A,,Clear,140,2014-02-02 13:35:00
7:55 AM,-13.0,-18.4,77,30.31,10.0,Calm,Calm,-,N/A,,Clear,0,2014-02-02 13:55:00
8:15 AM,-9.4,-16.6,71,30.32,10.0,SE,3.5,-,N/A,,Clear,130,2014-02-02 14:15:00
8:35 AM,-7.6,-13.0,77,30.33,10.0,SE,3.5,-,N/A,,Clear,140,2014-02-02 14:35:00
8:55 AM,-4.0,-11.2,71,30.34,10.0,Calm,Calm,-,N/A,,Clear,0,2014-02-02 14:55:00
9:15 AM,-2.2,-7.6,78,30.34,10.0,Calm,Calm,-,N/A,,Clear,0,2014-02-02 15:15:00
9:35 AM,-0.4,-5.8,78,30.33,10.0,Calm,Calm,-,N/A,,Clear,0,2014-02-02 15:35:00
9:55 AM,3.2,-2.2,78,30.33,10.0,Calm,Calm,-,N/A,,Clear,0,2014-02-02 15:55:00
10:15 AM,6.8,1.4,79,30.33,10.0,WSW,4.6,-,N/A,,Clear,250,2014-02-02 16:15:00
10:35 AM,10.4,3.2,73,30.34,10.0,SW,9.2,-,N/A,,Clear,220,2014-02-02 16:35:00
10:55 AM,12.2,3.2,67,30.34,10.0,WSW,6.9,-,N/A,,Clear,250,2014-02-02 16:55:00
11:15 AM,12.2,3.2,67,30.34,10.0,WSW,8.1,-,N/A,,Clear,240,2014-02-02 17:15:00
11:35 AM,14.0,3.2,62,30.33,10.0,WSW,9.2,-,N/A,,Clear,240,2014-02-02 17:35:00
11:55 AM,14.0,3.2,62,30.32,10.0,SW,8.1,-,N/A,,Clear,220,2014-02-02 17:55:00
12:15 PM,15.8,5.0,62,30.31,10.0,SW,11.5,-,N/A,,Clear,230,2014-02-02 18:15:00
12:35 PM,15.8,6.8,68,30.30,10.0,SW,9.2,-,N/A,,Clear,230,2014-02-02 18:35:00
12:55 PM,17.6,6.8,63,30.28,10.0,SW,10.4,-,N/A,,Clear,230,2014-02-02 18:55:00
1:15 PM,17.6,5.0,58,30.27,10.0,West,10.4,-,N/A,,Clear,260,2014-02-02 19:15:00
1:35 PM,19.4,6.8,58,30.26,10.0,West,12.7,-,N/A,,Clear,270,2014-02-02 19:35:00
1:55 PM,19.4,6.8,58,30.26,10.0,WSW,9.2,-,N/A,,Clear,250,2014-02-02 19:55:00
2:15 PM,21.2,8.6,58,30.25,10.0,SW,5.8,13.8,N/A,,Clear,220,2014-02-02 20:15:00
2:35 PM,21.2,6.8,54,30.24,10.0,WSW,10.4,-,N/A,,Clear,250,2014-02-02 20:35:00
2:55 PM,23.0,8.6,54,30.23,10.0,SW,9.2,-,N/A,,Clear,220,2014-02-02 20:55:00
3:15 PM,23.0,8.6,54,30.23,10.0,SW,10.4,-,N/A,,Clear,230,2014-02-02 21:15:00
3:35 PM,23.0,8.6,54,30.23,10.0,SW,8.1,-,N/A,,Clear,220,2014-02-02 21:35:00
3:55 PM,23.0,8.6,54,30.22,10.0,SW,8.1,-,N/A,,Clear,220,2014-02-02 21:55:00
4:15 PM,24.8,8.6,50,30.22,10.0,SSW,6.9,-,N/A,,Clear,210,2014-02-02 22:15:00
4:35 PM,23.0,8.6,54,30.22,10.0,South,6.9,-,N/A,,Clear,190,2014-02-02 22:35:00
4:55 PM,23.0,8.6,54,30.22,10.0,South,6.9,-,N/A,,Clear,190,2014-02-02 22:55:00
5:15 PM,21.2,8.6,58,30.21,10.0,South,5.8,-,N/A,,Clear,180,2014-02-02 23:15:00
5:35 PM,21.2,8.6,58,30.21,10.0,South,9.2,-,N/A,,Clear,170,2014-02-02 23:35:00
5:55 PM,19.4,8.6,63,30.21,10.0,South,10.4,-,N/A,,Clear,170,2014-02-02 23:55:00
6:15 PM,17.6,8.6,68,30.21,10.0,SSE,10.4,-,N/A,,Partly Cloudy,160,2014-02-03 00:15:00
6:35 PM,17.6,6.8,63,30.21,10.0,South,10.4,-,N/A,,Mostly Cloudy,170,2014-02-03 00:35:00
6:55 PM,15.8,6.8,68,30.21,10.0,SSE,11.5,-,N/A,,Overcast,160,2014-02-03 00:55:00
7:15 PM,15.8,6.8,68,30.20,10.0,SSE,10.4,-,N/A,,Overcast,160,2014-02-03 01:15:00
7:35 PM,15.8,6.8,68,30.20,10.0,South,13.8,20.7,N/A,,Mostly Cloudy,180,2014-02-03 01:35:00
7:55 PM,14.0,6.8,73,30.20,10.0,South,15.0,-,N/A,,Overcast,180,2014-02-03 01:55:00
8:15 PM,14.0,6.8,73,30.21,10.0,South,13.8,-,N/A,,Overcast,190,2014-02-03 02:15:00
8:35 PM,12.2,6.8,79,30.21,10.0,SSW,12.7,-,N/A,,Scattered Clouds,200,2014-02-03 02:35:00
8:55 PM,12.2,5.0,73,30.21,10.0,SSW,11.5,-,N/A,,Clear,200,2014-02-03 02:55:00
9:15 PM,12.2,5.0,73,30.21,10.0,SSW,10.4,-,N/A,,Clear,200,2014-02-03 03:15:00
9:35 PM,10.4,5.0,79,30.21,10.0,South,10.4,-,N/A,,Clear,190,2014-02-03 03:35:00
9:55 PM,10.4,5.0,79,30.22,10.0,SSW,10.4,-,N/A,,Clear,200,2014-02-03 03:55:00
10:15 PM,10.4,5.0,79,30.21,10.0,SSW,12.7,-,N/A,,Clear,200,2014-02-03 04:15:00
10:35 PM,10.4,5.0,79,30.21,10.0,SSW,10.4,17.3,N/A,,Clear,200,2014-02-03 04:35:00
10:55 PM,10.4,5.0,79,30.21,10.0,SSW,6.9,13.8,N/A,,Clear,210,2014-02-03 04:55:00
11:15 PM,10.4,3.2,73,30.21,10.0,SSW,8.1,-,N/A,,Clear,210,2014-02-03 05:15:00
11:35 PM,10.4,3.2,73,30.21,10.0,SSW,6.9,-,N/A,,Clear,200,2014-02-03 05:35:00
11:55 PM,8.6,3.2,79,30.21,10.0,SSW,5.8,-,N/A,,Clear,200,2014-02-03 05:55:00